| time (UTC) | temp F | wind direction | speed MPH | gust MPH | rain 1hr in | rain 24hr in | rain mn in | humidity % | barometer mb |
| 20260510142319 | 71 | 135 | 0.0 | 1.0 | 0.00 | 0.00 | 0.00 | 98 | 1019.1 |
| 20260510141319 | 71 | 90 | 0.0 | 0.0 | 0.00 | 0.00 | 0.00 | 99 | 1019.3 |
| 20260510135321 | 70 | 82 | 2.0 | 3.0 | 0.00 | 0.00 | 0.00 | 99 | 1019.0 |
| 20260510134419 | 70 | 45 | 0.0 | 0.0 | 0.00 | 0.00 | 0.00 | 99 | 1019.0 |
| 20260510133421 | 70 | 80 | 2.0 | 5.0 | 0.00 | 0.00 | 0.00 | 99 | 1018.7 |
| 20260510132419 | 70 | 104 | 1.0 | 3.0 | 0.00 | 0.00 | 0.00 | 98 | 1018.8 |
| 20260510131420 | 69 | 90 | 0.0 | 0.0 | 0.00 | 0.00 | 0.00 | 99 | 1018.8 |
| 20260510130519 | 69 | 74 | 0.0 | 1.0 | 0.00 | 0.00 | 0.00 | 99 | 1018.4 |
| 20260510125520 | 69 | 142 | 0.0 | 0.0 | 0.00 | 0.00 | 0.00 | 99 | 1018.5 |
| 20260510123521 | 68 | 81 | 3.0 | 5.0 | 0.00 | 0.00 | 0.00 | 99 | 1018.4 |
| 20260510122520 | 68 | 67 | 2.0 | 4.0 | 0.00 | 0.00 | 0.00 | 98 | 1018.2 |
| 20260510121519 | 68 | 67 | 1.0 | 4.0 | 0.00 | 0.00 | 0.00 | 99 | 1018.0 |
| 20260510120518 | 68 | 79 | 2.0 | 3.0 | 0.00 | 0.00 | 0.00 | 99 | 1017.7 |
| 20260510115520 | 68 | 90 | 0.0 | 0.0 | 0.00 | 0.00 | 0.00 | 99 | 1017.5 |
| 20260510114520 | 68 | 90 | 0.0 | 0.0 | 0.00 | 0.00 | 0.00 | 99 | 1017.4 |
| 20260510113520 | 68 | 67 | 0.0 | 2.0 | 0.00 | 0.00 | 0.00 | 99 | 1017.1 |
| 20260510112520 | 68 | 90 | 0.0 | 1.0 | 0.00 | 0.00 | 0.00 | 99 | 1017.0 |
| 20260510111520 | 68 | 67 | 0.0 | 0.0 | 0.00 | 0.00 | 0.00 | 99 | 1016.7 |
| 20260510110520 | 68 | 67 | 0.0 | 0.0 | 0.00 | 0.00 | 0.00 | 99 | 1016.4 |
| 20260510105519 | 68 | 90 | 0.0 | 0.0 | 0.00 | 0.00 | 0.00 | 99 | 1016.1 |
| 20260510104521 | 68 | 90 | 0.0 | 0.0 | 0.00 | 0.00 | 0.00 | 99 | 1015.9 |
| 20260510101618 | 68 | 90 | 0.0 | 0.0 | 0.00 | 0.00 | 0.00 | 98 | 1015.7 |
| 20260510100619 | 68 | 90 | 0.0 | 2.0 | 0.00 | 0.00 | 0.00 | 98 | 1015.7 |
| 20260510095634 | 68 | 91 | 1.0 | 2.0 | 0.00 | 0.00 | 0.00 | 99 | 1015.5 |
| 20260510092718 | 68 | 90 | 0.0 | 0.0 | 0.00 | 0.00 | 0.00 | 99 | 1015.4 |
| 20260510091721 | 68 | 90 | 0.0 | 0.0 | 0.00 | 0.00 | 0.00 | 98 | 1015.4 |
| 20260510090819 | 68 | 90 | 0.0 | 0.0 | 0.00 | 0.00 | 0.00 | 99 | 1015.6 |
| 20260510085820 | 68 | 90 | 0.0 | 0.0 | 0.00 | 0.00 | 0.00 | 99 | 1015.6 |
| 20260510084822 | 68 | 67 | 0.0 | 0.0 | 0.00 | 0.00 | 0.00 | 99 | 1015.6 |
| 20260510082820 | 68 | 67 | 0.0 | 0.0 | 0.00 | 0.00 | 0.00 | 99 | 1015.5 |
| 20260510081820 | 68 | 67 | 0.0 | 0.0 | 0.00 | 0.00 | 0.00 | 99 | 1015.4 |
| 20260510074819 | 68 | 67 | 1.0 | 2.0 | 0.00 | 0.00 | 0.00 | 99 | 1015.1 |
| 20260510073820 | 68 | 67 | 0.0 | 0.0 | 0.00 | 0.00 | 0.00 | 99 | 1015.0 |
| 20260510072819 | 69 | 67 | 0.0 | 1.0 | 0.00 | 0.00 | 0.00 | 99 | 1015.0 |
| 20260510071820 | 69 | 67 | 0.0 | 0.0 | 0.00 | 0.00 | 0.00 | 99 | 1015.0 |
| 20260510070919 | 69 | 67 | 0.0 | 0.0 | 0.00 | 0.00 | 0.00 | 99 | 1015.0 |
| 20260510065921 | 69 | 67 | 0.0 | 0.0 | 0.00 | 0.00 | 0.00 | 98 | 1015.0 |
| 20260510065019 | 69 | 90 | 0.0 | 1.0 | 0.00 | 0.00 | 0.00 | 99 | 1015.0 |
| 20260510064019 | 68 | 45 | 0.0 | 0.0 | 0.00 | 0.00 | 0.00 | 99 | 1015.3 |
| 20260510063021 | 68 | 292 | 0.0 | 0.0 | 0.00 | 0.00 | 0.00 | 97 | 1015.4 |
| 20260510062021 | 68 | 292 | 0.0 | 0.0 | 0.00 | 0.00 | 0.00 | 98 | 1015.3 |
| 20260510061119 | 68 | 292 | 0.0 | 0.0 | 0.00 | 0.00 | 0.00 | 98 | 1015.4 |
| 20260510060120 | 69 | 292 | 0.0 | 0.0 | 0.00 | 0.00 | 0.00 | 98 | 1015.3 |
| 20260510055219 | 68 | 292 | 0.0 | 0.0 | 0.00 | 0.00 | 0.00 | 98 | 1015.3 |
| 20260510054220 | 68 | 292 | 0.0 | 0.0 | 0.00 | 0.00 | 0.00 | 98 | 1015.4 |
| 20260510053319 | 68 | 292 | 0.0 | 0.0 | 0.00 | 0.01 | 0.00 | 98 | 1015.2 |
| 20260510052321 | 69 | 292 | 0.0 | 0.0 | 0.00 | 0.01 | 0.00 | 97 | 1015.4 |
| 20260510051321 | 69 | 292 | 0.0 | 0.0 | 0.00 | 0.01 | 0.00 | 98 | 1015.3 |
| 20260510050319 | 69 | 292 | 0.0 | 0.0 | 0.00 | 0.01 | 0.00 | 98 | 1015.4 |
| 20260510045320 | 69 | 292 | 0.0 | 0.0 | 0.00 | 0.01 | 0.01 | 98 | 1015.4 |
| 20260510044420 | 69 | 292 | 0.0 | 0.0 | 0.00 | 0.01 | 0.01 | 98 | 1015.3 |
| 20260510043422 | 69 | 292 | 0.0 | 0.0 | 0.00 | 0.01 | 0.01 | 98 | 1015.2 |
| 20260510042421 | 70 | 292 | 0.0 | 0.0 | 0.00 | 0.01 | 0.01 | 98 | 1015.3 |
| 20260510041521 | 70 | 292 | 0.0 | 0.0 | 0.00 | 0.01 | 0.01 | 97 | 1015.3 |
| 20260510035620 | 70 | 67 | 0.0 | 0.0 | 0.00 | 0.01 | 0.01 | 98 | 1014.6 |
| 20260510034720 | 70 | 67 | 1.0 | 2.0 | 0.00 | 0.01 | 0.01 | 97 | 1015.0 |
| 20260510031721 | 70 | 45 | 0.0 | 1.0 | 0.00 | 0.01 | 0.01 | 97 | 1015.9 |
| 20260510030722 | 70 | 30 | 0.0 | 0.0 | 0.00 | 0.01 | 0.01 | 98 | 1015.8 |
| 20260510025821 | 70 | 45 | 0.0 | 0.0 | 0.00 | 0.01 | 0.01 | 98 | 1015.8 |
| 20260510024822 | 70 | 62 | 0.0 | 0.0 | 0.00 | 0.01 | 0.01 | 97 | 1015.4 |
| 20260510023820 | 70 | 90 | 0.0 | 0.0 | 0.00 | 0.01 | 0.01 | 98 | 1015.3 |
| 20260510022822 | 70 | 180 | 0.0 | 0.0 | 0.00 | 0.01 | 0.01 | 98 | 1015.3 |
| 20260510021821 | 70 | 180 | 0.0 | 0.0 | 0.00 | 0.01 | 0.01 | 98 | 1015.2 |
| 20260510020821 | 70 | 180 | 0.0 | 0.0 | 0.00 | 0.01 | 0.01 | 98 | 1015.4 |
| 20260510015823 | 70 | 270 | 0.0 | 0.0 | 0.00 | 0.01 | 0.01 | 98 | 1015.6 |
| 20260510014920 | 70 | 270 | 0.0 | 1.0 | 0.00 | 0.01 | 0.01 | 98 | 1015.2 |
| 20260510013921 | 70 | 270 | 0.0 | 0.0 | 0.00 | 0.01 | 0.01 | 97 | 1014.4 |
| 20260510012923 | 70 | 268 | 0.0 | 2.0 | 0.00 | 0.01 | 0.01 | 98 | 1014.2 |
| 20260510011922 | 70 | 270 | 0.0 | 0.0 | 0.00 | 0.01 | 0.01 | 98 | 1014.2 |
| 20260510010920 | 70 | 292 | 0.0 | 0.0 | 0.00 | 0.01 | 0.01 | 98 | 1014.4 |
| 20260510005921 | 70 | 67 | 0.0 | 1.0 | 0.00 | 0.01 | 0.01 | 98 | 1014.2 |
| 20260510003922 | 70 | 360 | 0.0 | 1.0 | 0.00 | 0.01 | 0.01 | 98 | 1014.8 |
| 20260510003020 | 70 | 242 | 2.0 | 3.0 | 0.00 | 0.01 | 0.01 | 98 | 1014.7 |
| 20260510002021 | 70 | 67 | 0.0 | 0.0 | 0.00 | 0.01 | 0.01 | 98 | 1013.9 |
| 20260510001119 | 70 | 337 | 0.0 | 0.0 | 0.00 | 0.01 | 0.01 | 97 | 1013.9 |
| 20260510000122 | 70 | 67 | 0.0 | 1.0 | 0.00 | 0.01 | 0.01 | 98 | 1014.1 |
| 20260509235122 | 70 | 247 | 0.0 | 0.0 | 0.00 | 0.01 | 0.01 | 98 | 1014.8 |
| 20260509234121 | 70 | 292 | 0.0 | 0.0 | 0.00 | 0.01 | 0.01 | 98 | 1014.5 |
| 20260509233120 | 70 | 315 | 0.0 | 0.0 | 0.00 | 0.01 | 0.01 | 98 | 1014.6 |
| 20260509232120 | 70 | 315 | 0.0 | 0.0 | 0.00 | 0.01 | 0.01 | 97 | 1014.6 |
| 20260509231121 | 70 | 315 | 0.0 | 0.0 | 0.00 | 0.01 | 0.01 | 98 | 1014.5 |
| 20260509225120 | 70 | 315 | 0.0 | 0.0 | 0.00 | 0.01 | 0.01 | 97 | 1014.6 |
| 20260509224219 | 69 | 315 | 0.0 | 0.0 | 0.00 | 0.01 | 0.01 | 98 | 1014.0 |
| 20260509223222 | 69 | 225 | 0.0 | 1.0 | 0.00 | 0.01 | 0.01 | 98 | 1013.8 |
| 20260509221221 | 69 | 247 | 0.0 | 0.0 | 0.00 | 0.01 | 0.01 | 98 | 1014.1 |
| 20260509220223 | 69 | 225 | 1.0 | 4.0 | 0.00 | 0.01 | 0.01 | 98 | 1014.3 |
| 20260509215220 | 69 | 225 | 0.0 | 0.0 | 0.00 | 0.01 | 0.01 | 97 | 1014.1 |
| 20260509214222 | 69 | 180 | 0.0 | 0.0 | 0.00 | 0.01 | 0.01 | 98 | 1013.9 |
| 20260509213321 | 69 | 180 | 0.0 | 0.0 | 0.00 | 0.01 | 0.01 | 98 | 1014.0 |
| 20260509212320 | 69 | 180 | 0.0 | 2.0 | 0.00 | 0.01 | 0.01 | 97 | 1013.8 |
| 20260509211320 | 69 | 270 | 0.0 | 0.0 | 0.00 | 0.01 | 0.01 | 98 | 1013.8 |
| 20260509210322 | 69 | 270 | 2.0 | 2.0 | 0.00 | 0.01 | 0.01 | 98 | 1013.0 |
| 20260509205420 | 69 | 23 | 1.0 | 1.0 | 0.00 | 0.01 | 0.01 | 97 | 1012.6 |
| 20260509204422 | 69 | 202 | 0.0 | 1.0 | 0.00 | 0.01 | 0.01 | 98 | 1013.4 |
| 20260509203520 | 69 | 226 | 1.0 | 3.0 | 0.00 | 0.01 | 0.01 | 98 | 1013.5 |
| 20260509202521 | 69 | 45 | 0.0 | 0.0 | 0.00 | 0.01 | 0.01 | 98 | 1013.6 |
| 20260509201620 | 69 | 56 | 2.0 | 4.0 | 0.00 | 0.01 | 0.01 | 98 | 1013.8 |
| 20260509200622 | 69 | 45 | 1.0 | 2.0 | 0.00 | 0.01 | 0.01 | 98 | 1014.6 |
| 20260509195623 | 69 | 181 | 2.0 | 3.0 | 0.00 | 0.01 | 0.01 | 98 | 1015.1 |
| 20260509193720 | 69 | 259 | 1.0 | 1.0 | 0.00 | 0.01 | 0.01 | 98 | 1014.8 |
| 20260509192721 | 68 | 59 | 1.0 | 5.0 | 0.00 | 0.01 | 0.01 | 97 | 1014.5 |
| 20260509191721 | 68 | 270 | 0.0 | 0.0 | 0.00 | 0.01 | 0.01 | 97 | 1015.1 |
| 20260509190720 | 68 | 2 | 0.0 | 1.0 | 0.00 | 0.01 | 0.01 | 98 | 1014.9 |
| 20260509185736 | 68 | 348 | 0.0 | 1.0 | 0.00 | 0.01 | 0.01 | 98 | 1014.8 |
| 20260509184720 | 68 | 45 | 0.0 | 1.0 | 0.00 | 0.01 | 0.01 | 98 | 1014.8 |
| 20260509183820 | 67 | 180 | 0.0 | 0.0 | 0.00 | 0.01 | 0.01 | 98 | 1015.1 |
| 20260509182919 | 67 | 225 | 0.0 | 2.0 | 0.00 | 0.01 | 0.01 | 98 | 1015.4 |
| 20260509181921 | 67 | 45 | 0.0 | 0.0 | 0.00 | 0.01 | 0.01 | 98 | 1014.8 |
| 20260509180921 | 67 | 67 | 1.0 | 3.0 | 0.00 | 0.01 | 0.01 | 98 | 1014.6 |
| 20260509175922 | 67 | 66 | 1.0 | 2.0 | 0.00 | 0.01 | 0.01 | 97 | 1014.3 |
| 20260509174919 | 67 | 214 | 1.0 | 3.0 | 0.00 | 0.01 | 0.01 | 97 | 1014.9 |
| 20260509173919 | 67 | 68 | 1.0 | 5.0 | 0.00 | 0.01 | 0.01 | 98 | 1014.5 |
| 20260509172922 | 67 | 63 | 1.0 | 3.0 | 0.00 | 0.01 | 0.01 | 98 | 1014.9 |
| 20260509171922 | 67 | 180 | 0.0 | 0.0 | 0.00 | 0.01 | 0.01 | 97 | 1015.3 |
| 20260509170919 | 67 | 127 | 2.0 | 4.0 | 0.00 | 0.01 | 0.01 | 98 | 1015.1 |
| 20260509164020 | 67 | 197 | 0.0 | 0.0 | 0.00 | 0.01 | 0.01 | 98 | 1015.3 |
| 20260509161022 | 67 | 95 | 1.0 | 2.0 | 0.00 | 0.01 | 0.01 | 98 | 1015.6 |
| 20260509160935 | 67 | 157 | 0.0 | 0.0 | 0.00 | 0.01 | 0.01 | 97 | 1015.4 |
| 20260509160022 | 67 | 62 | 2.0 | 5.0 | 0.00 | 0.01 | 0.01 | 98 | 1015.1 |
| 20260509153020 | 67 | 79 | 2.0 | 4.0 | 0.00 | 0.01 | 0.01 | 97 | 1015.7 |
| 20260509150020 | 67 | 63 | 4.0 | 7.0 | 0.00 | 0.01 | 0.01 | 97 | 1015.3 |
| 20260509145119 | 67 | 77 | 2.0 | 4.0 | 0.00 | 0.01 | 0.01 | 96 | 1015.1 |
| 20260509144121 | 67 | 72 | 4.0 | 6.0 | 0.00 | 0.01 | 0.01 | 97 | 1015.2 |
| 20260509143122 | 67 | 67 | 1.0 | 3.0 | 0.00 | 0.01 | 0.01 | 97 | 1015.7 |